Weather History for KSYF - October, 2013

Change the Weather History Date:

Thursday, October 3, 2013

  Actual Average Record
Temperature  
Mean Temperature 52 °F -  
Max Temperature 57 °F 76 °F 58 °F (2014)
Min Temperature 46 °F 42 °F 36 °F (2014)
Degree Days  
Heating Degree Days 12    
Growing Degree Days 2 (Base 50)    
Moisture  
Dew Point 47 °F    
Average Humidity 80    
Maximum Humidity 94    
Minimum Humidity 60    
Precipitation  
Precipitation 0.00 in - - ()
Sea Level Pressure  
Sea Level Pressure 29.78 in    
Wind  
Wind Speed 9 mph (North)    
Max Wind Speed 15 mph    
Max Gust Speed 18 mph    
Visibility 7 miles    
Events Rain    
Averages and records for this station are not official NWS values.
T = Trace of Precipitation, MM = Missing Value Source: NWS Daily Summary

Daily Weather History Graph

Daily Weather History Graph

Search for Another Location

Airport or City:

Trip Planner

Search our weather history database for the weather conditions in past years. The results will help you decide how hot, cold, wet, or windy it might be!

Date:

Astronomy

Oct. 03, 2013 Rise Set
Actual Time 7:45 AM CDT 7:25 PM CDT
Civil Twilight 7:18 AM CDT 7:52 PM CDT
Nautical Twilight 6:47 AM CDT 8:24 PM CDT
Astronomical Twilight 6:15 AM CDT 8:55 PM CDT
Moon 6:21 AM CDT 6:35 PM CDT
Length of Visible Light 12h 34m
Length of Day
11h 40m
Waning Crescent, 2% of the Moon is Illuminated
Oct 3
Waning Crescent
Oct 4
New
Oct 11
First Quarter
Oct 18
Full
Oct 26
Last Quarter

Hourly Weather History & Observations

Time (CDT) Temp. Windchill Dew Point Humidity Pressure Visibility Wind Dir Wind Speed Gust Speed Precip Events Conditions
12:15 AM 59.0 °F - 46.2 °F 63% 29.83 in 10.0 mi NNE 11.5 mph - N/A   Scattered Clouds
12:35 AM 57.7 °F - 44.1 °F 60% 29.82 in 10.0 mi NNE 9.2 mph - N/A   Clear
12:55 AM 56.3 °F - 43.7 °F 63% 29.81 in 10.0 mi NNE 9.2 mph - N/A   Clear
1:15 AM 55.4 °F - 43.2 °F 63% 29.81 in 10.0 mi NNE 8.1 mph - N/A   Clear
1:35 AM 54.5 °F - 42.8 °F 65% 29.81 in 10.0 mi North 8.1 mph - N/A   Clear
1:55 AM 52.9 °F - 42.8 °F 69% 29.81 in 10.0 mi North 5.8 mph - N/A   Clear
2:15 AM 51.8 °F - 42.1 °F 69% 29.81 in 10.0 mi NNE 5.8 mph - N/A   Clear
2:35 AM 51.8 °F - 41.9 °F 69% 29.81 in 10.0 mi NNE 5.8 mph - N/A   Clear
2:55 AM 51.1 °F - 41.9 °F 71% 29.79 in 10.0 mi NNE 5.8 mph - N/A   Clear
3:15 AM 50.0 °F - 41.9 °F 74% 29.79 in 10.0 mi NNE 4.6 mph - N/A   Clear
3:35 AM 50.4 °F - 41.7 °F 72% 29.78 in 10.0 mi NNE 4.6 mph - N/A   Clear
3:55 AM 48.6 °F - 41.4 °F 76% 29.77 in 10.0 mi NNE 4.6 mph - N/A   Clear
4:15 AM 48.6 °F - 41.7 °F 77% 29.76 in 10.0 mi NE 5.8 mph - N/A   Clear
4:35 AM 49.3 °F - 41.9 °F 76% 29.77 in 10.0 mi Calm Calm - N/A   Clear
4:55 AM 49.3 °F - 41.9 °F 76% 29.77 in 10.0 mi WNW 4.6 mph - N/A   Clear
5:15 AM 46.0 °F 41.4 °F 41.0 °F 83% 29.78 in 10.0 mi WNW 9.2 mph - N/A   Clear
5:35 AM 48.7 °F - 42.1 °F 78% 29.77 in 10.0 mi NNW 6.9 mph - N/A   Clear
5:55 AM 48.4 °F - 42.3 °F 79% 29.77 in 10.0 mi NW 8.1 mph - N/A   Scattered Clouds
6:15 AM 49.5 °F - 42.8 °F 78% 29.77 in 10.0 mi NNW 5.8 mph - N/A   Overcast
6:35 AM 50.2 °F - 42.8 °F 76% 29.78 in 10.0 mi NW 5.8 mph - N/A   Overcast
6:55 AM 51.1 °F - 43.0 °F 74% 29.77 in 10.0 mi NNW 6.9 mph - N/A   Overcast
7:15 AM 52.2 °F - 43.2 °F 71% 29.78 in 10.0 mi NNW 11.5 mph 18.4 mph N/A   Overcast
7:35 AM 52.7 °F - 43.7 °F 71% 29.78 in 10.0 mi NNW 9.2 mph 17.3 mph N/A   Overcast
7:55 AM 53.2 °F - 43.7 °F 70% 29.78 in 10.0 mi North 8.1 mph 17.3 mph N/A   Overcast
8:15 AM 53.2 °F - 44.1 °F 71% 29.79 in 10.0 mi North 6.9 mph - N/A   Overcast
8:35 AM 53.4 °F - 44.1 °F 71% 29.79 in 10.0 mi NNW 10.4 mph - N/A   Overcast
8:55 AM 53.4 °F - 45.5 °F 75% 29.81 in 10.0 mi North 11.5 mph - N/A   Overcast
9:15 AM 53.6 °F - 45.1 °F 73% 29.81 in 10.0 mi NNW 15.0 mph - N/A   Overcast
9:35 AM 53.1 °F - 46.2 °F 78% 29.81 in 10.0 mi North 12.7 mph - N/A   Overcast
9:55 AM 53.1 °F - 46.6 °F 79% 29.81 in 7.0 mi North 12.7 mph - N/A   Overcast
10:15 AM 52.5 °F - 47.1 °F 82% 29.81 in 5.0 mi North 10.4 mph - N/A   Haze
10:35 AM 52.0 °F - 48.0 °F 86% 29.80 in 3.0 mi North 11.5 mph - N/A   Overcast
10:55 AM 52.3 °F - 48.2 °F 86% 29.81 in 4.0 mi North 8.1 mph - N/A   Overcast
11:15 AM 53.1 °F - 48.6 °F 85% 29.80 in 4.0 mi North 9.2 mph - N/A   Overcast
11:35 AM 53.6 °F - 49.1 °F 85% 29.81 in 4.0 mi North 9.2 mph - N/A   Haze
11:55 AM 53.8 °F - 49.3 °F 85% 29.81 in 5.0 mi North 9.2 mph - N/A   Haze
12:15 PM 54.0 °F - 49.3 °F 84% 29.81 in 7.0 mi North 8.1 mph - N/A   Overcast
12:35 PM 54.5 °F - 49.1 °F 82% 29.81 in 10.0 mi North 9.2 mph - N/A   Overcast
12:55 PM 54.9 °F - 49.1 °F 81% 29.81 in 10.0 mi NNW 9.2 mph - N/A   Overcast
1:15 PM 55.4 °F - 49.3 °F 80% 29.79 in 10.0 mi North 10.4 mph - N/A   Overcast
1:35 PM 55.9 °F - 49.8 °F 80% 29.79 in 10.0 mi North 8.1 mph - N/A   Overcast
1:55 PM 57.2 °F - 50.0 °F 77% 29.77 in 10.0 mi North 10.4 mph - N/A   Overcast
2:15 PM 57.0 °F - 50.5 °F 79% 29.77 in 10.0 mi North 9.2 mph - N/A   Overcast
2:35 PM 56.3 °F - 50.5 °F 81% 29.77 in 10.0 mi North 10.4 mph - N/A   Overcast
2:55 PM 55.9 °F - 50.7 °F 83% 29.77 in 10.0 mi NNW 11.5 mph - N/A   Overcast
3:15 PM 55.4 °F - 50.0 °F 82% 29.77 in 10.0 mi NNW 12.7 mph 18.4 mph N/A   Overcast
3:35 PM 55.0 °F - 50.0 °F 83% 29.77 in 7.0 mi North 8.1 mph - N/A   Overcast
3:55 PM 54.7 °F - 49.8 °F 84% 29.77 in 7.0 mi North 5.8 mph 17.3 mph N/A   Overcast
4:15 PM 55.4 °F - 50.0 °F 82% 29.76 in 7.0 mi North 10.4 mph - N/A   Overcast
4:35 PM 55.0 °F - 50.0 °F 83% 29.76 in 7.0 mi North 10.4 mph - N/A   Overcast
4:55 PM 54.9 °F - 49.8 °F 83% 29.76 in 7.0 mi North 11.5 mph - N/A   Overcast
5:15 PM 54.3 °F - 50.0 °F 85% 29.76 in 5.0 mi NNE 10.4 mph - N/A   Overcast
5:35 PM 54.1 °F - 50.0 °F 86% 29.76 in 5.0 mi North 9.2 mph - N/A   Overcast
5:55 PM 54.1 °F - 50.0 °F 86% 29.76 in 4.0 mi NNE 10.4 mph - N/A   Overcast
6:15 PM 54.5 °F - 50.0 °F 85% 29.76 in 4.0 mi North 4.6 mph - N/A   Overcast
6:35 PM 54.0 °F - 50.2 °F 87% 29.76 in 4.0 mi NNE 6.9 mph - N/A   Overcast
6:55 PM 53.6 °F - 50.2 °F 88% 29.76 in 4.0 mi NNE 3.5 mph - N/A   Overcast
7:15 PM 52.9 °F - 49.8 °F 89% 29.76 in 7.0 mi NNE 4.6 mph - N/A   Overcast
7:35 PM 52.7 °F - 49.6 °F 89% 29.77 in 3.0 mi NNE 9.2 mph - N/A   Overcast
7:55 PM 52.3 °F - 50.0 °F 92% 29.77 in 3.0 mi NNE 10.4 mph - N/A   Overcast
8:15 PM 52.5 °F - 50.2 °F 92% 29.77 in 3.0 mi NE 9.2 mph - N/A   Overcast
8:35 PM 52.7 °F - 50.4 °F 92% 29.76 in 2.5 mi NNE 10.4 mph - N/A   Overcast
8:55 PM 52.9 °F - 50.7 °F 92% 29.75 in 3.0 mi NNE 12.7 mph - N/A   Overcast
9:15 PM 52.9 °F - 50.9 °F 93% 29.75 in 2.0 mi NE 12.7 mph - N/A   Overcast
9:35 PM 52.9 °F - 50.9 °F 93% 29.74 in 1.0 mi NNE 12.7 mph 16.1 mph N/A   Overcast
9:55 PM 53.1 °F - 51.1 °F 93% 29.75 in 0.8 mi NE 10.4 mph - N/A Rain Light Rain
10:15 PM 53.2 °F - 51.4 °F 94% 29.74 in 1.2 mi NE 12.7 mph - N/A   Overcast
10:35 PM 53.6 °F - 51.6 °F 93% 29.73 in 2.0 mi NE 11.5 mph - N/A   Overcast
11:35 PM 53.8 °F - 52.0 °F 94% 29.73 in 1.5 mi NNE 6.9 mph - N/A   Overcast
11:55 PM 54.0 °F - 52.2 °F 94% 29.71 in 1.8 mi NE 8.1 mph - N/A   Overcast